GFSNGP_700_temp_000.txt.gz
Temp
6 6 5 5 5 4 4 4 3 4 4 3 3 2 2 2 1 1 0 -1 -1 -2 -2 -2 -3 -5 -5 -5 -5 -6 -6 -7 -7 -8 -8 -9 -10 -11 -11 -12 -12 -13 -14 -14
5 5 5 5 5 5 4 4 3 3 4 3 3 2 2 2 1 0 -1 -1 -2 -3 -3 -3 -4 -5 -5 -5 -6 -6 -7 -8 -8 -9 -9 -10 -11 -11 -12 -13 -13 -14 -14 -15
4 5 4 4 6 6 6 5 5 4 4 3 3 2 2 1 1 -0 -1 -2 -2 -3 -3 -4 -4 -5 -5 -6 -7 -7 -8 -9 -9 -10 -10 -11 -12 -12 -13 -13 -14 -15 -15 -16
4 4 -2 6 6 6 5 5 5 4 3 3 2 1 1 0 -0 -1 -1 -2 -2 -3 -4 -4 -5 -6 -6 -7 -8 -8 -9 -9 -10 -11 -11 -12 -12 -13 -13 -14 -14 -15 -16 -16
4 3 4 5 5 5 5 5 4 3 2 2 1 1 1 -0 -1 -2 -2 -3 -3 -4 -5 -6 -6 -6 -7 -8 -9 -9 -9 -10 -11 -11 -11 -12 -13 -13 -14 -14 -15 -16 -17 -17
3 2 -4 5 5 4 4 3 4 3 2 2 1 0 0 -1 -2 -2 -3 -4 -4 -5 -6 -6 -7 -7 -8 -9 -9 -9 -10 -10 -11 -12 -12 -12 -13 -14 -14 -15 -15 -16 -16 -16
2 2 3 4 4 3 2 3 2 2 2 1 0 -0 -1 -2 -3 -3 -3 -4 -5 -6 -7 -7 -8 -8 -9 -9 -9 -9 -10 -11 -12 -12 -12 -13 -14 -14 -15 -15 -16 -16 -16 -16
2 1 1 3 3 2 2 2 1 1 0 -0 -1 -1 -2 -3 -3 -3 -4 -5 -6 -7 -7 -8 -8 -9 -9 -9 -9 -10 -11 -12 -12 -12 -13 -13 -14 -15 -15 -16 -16 -16 -16 -17
2 3 3 2 2 1 1 0 0 -1 -1 -1 -1 -2 -3 -3 -3 -4 -5 -6 -7 -8 -8 -8 -9 -9 -9 -9 -9 -10 -11 -12 -12 -13 -13 -14 -15 -15 -16 -16 -16 -16 -16 -17
2 2 1 1 0 0 -0 -1 -1 -1 -1 -2 -2 -3 -3 -3 -4 -4 -6 -6 -8 -8 -8 -9 -9 -9 -9 -10 -10 -11 -12 -13 -13 -13 -14 -14 -15 -16 -16 -16 -16 -16 -17 -17
1 1 0 0 0 -0 -0 -0 -1 -1 -2 -2 -3 -3 -4 -4 -4 -5 -6 -7 -8 -8 -9 -9 -9 -10 -10 -10 -11 -12 -13 -13 -13 -13 -14 -15 -15 -16 -16 -16 -16 -16 -16 -17
0 0 -0 -0 -0 -0 -1 -1 -1 -2 -2 -3 -3 -4 -4 -4 -5 -6 -7 -9 -9 -9 -9 -9 -10 -10 -10 -11 -12 -12 -13 -13 -13 -14 -14 -15 -16 -16 -16 -16 -16 -16 -16 -17
-0 -0 -0 -0 -1 -1 -1 -1 -2 -2 -3 -4 -4 -4 -5 -5 -6 -8 -10 -10 -9 -9 -9 -10 -10 -10 -11 -12 -12 -13 -13 -13 -14 -14 -15 -15 -16 -16 -16 -16 -16 -16 -16 -17
-0 -1 -1 -1 -1 -1 -2 -2 -3 -4 -4 -4 -5 -5 -5 -7 -8 -10 -10 -9 -9 -10 -10 -10 -10 -11 -12 -12 -13 -13 -13 -14 -14 -15 -15 -15 -16 -16 -16 -16 -16 -17 -17 -17
-0 -1 -1 -2 -2 -2 -3 -4 -4 -4 -4 -4 -5 -6 -7 -8 -9 -10 -9 -9 -9 -10 -10 -10 -11 -12 -12 -12 -13 -13 -14 -14 -14 -15 -15 -15 -16 -16 -16 -16 -16 -16 -16 -17
-1 -2 -2 -2 -2 -3 -3 -5 -4 -5 -4 -5 -5 -7 -8 -9 -10 -9 -9 -9 -10 -10 -10 -11 -12 -12 -12 -13 -13 -13 -14 -14 -14 -15 -15 -16 -16 -16 -16 -16 -16 -16 -17 -17
-2 -2 -2 -3 -3 -3 -4 -5 -5 -5 -6 -7 -8 -8 -9 -10 -9 -9 -10 -10 -10 -11 -11 -11 -12 -12 -13 -13 -13 -14 -14 -14 -15 -15 -15 -16 -16 -16 -16 -16 -16 -16 -17 -17
-3 -3 -4 -5 -5 -6 -5 -6 -6 -7 -8 -9 -10 -10 -9 -9 -10 -10 -10 -10 -11 -11 -12 -12 -13 -13 -13 -13 -14 -14 -14 -14 -15 -15 -15 -16 -16 -16 -16 -16 -16 -16 -16 -17
-5 -5 -6 -6 -6 -6 -7 -8 -8 -9 -10 -11 -11 -10 -10 -10 -10 -10 -10 -11 -11 -12 -12 -13 -13 -13 -13 -14 -14 -14 -14 -14 -14 -15 -15 -15 -16 -16 -16 -16 -16 -16 -16 -17
-6 -7 -7 -8 -8 -8 -9 -9 -10 -10 -11 -11 -10 -10 -10 -10 -10 -11 -11 -11 -12 -13 -13 -13 -13 -14 -14 -14 -14 -14 -14 -14 -14 -14 -15 -15 -15 -16 -16 -16 -16 -16 -16 -16
-8 -9 -9 -9 -9 -9 -10 -10 -10 -10 -10 -10 -10 -10 -10 -11 -11 -11 -12 -12 -13 -14 -13 -14 -14 -14 -14 -14 -14 -14 -14 -14 -14 -14 -15 -15 -16 -16 -16 -16 -16 -16 -16 -17
-9 -9 -9 -9 -9 -10 -10 -10 -10 -10 -10 -11 -11 -11 -11 -11 -12 -12 -13 -13 -14 -14 -14 -14 -14 -14 -14 -14 -15 -15 -15 -15 -14 -15 -15 -15 -16 -16 -16 -16 -16 -17 -17 -17
-9 -9 -10 -10 -10 -10 -10 -11 -11 -11 -11 -11 -11 -12 -12 -13 -13 -13 -14 -14 -14 -14 -14 -14 -14 -14 -14 -15 -15 -15 -15 -15 -15 -15 -15 -15 -16 -16 -16 -16 -16 -17 -17 -17
-11 -11 -11 -11 -11 -11 -11 -11 -12 -12 -12 -12 -13 -13 -13 -13 -13 -14 -14 -15 -15 -15 -15 -15 -15 -15 -15 -15 -15 -15 -15 -15 -15 -15 -15 -16 -16 -16 -16 -16 -17 -17 -17 -17
-12 -12 -12 -12 -12 -12 -12 -12 -12 -13 -13 -13 -13 -14 -14 -14 -14 -14 -14 -15 -15 -15 -16 -16 -16 -16 -16 -16 -16 -16 -16 -16 -16 -16 -16 -16 -16 -16 -16 -16 -17 -17 -17 -17
-12 -12 -12 -12 -13 -13 -13 -13 -13 -13 -13 -13 -13 -13 -13 -14 -14 -15 -15 -15 -15 -16 -17 -17 -17 -17 -17 -16 -16 -16 -16 -16 -17 -17 -16 -16 -16 -16 -17 -17 -17 -17 -17 -17
-13 -13 -13 -14 -14 -14 -14 -14 -14 -13 -14 -14 -14 -14 -14 -14 -15 -15 -15 -15 -16 -16 -17 -18 -17 -18 -17 -17 -17 -17 -17 -17 -17 -17 -17 -17 -17 -17 -17 -17 -17 -17 -17 -18

GFSNGP_700_temp_003.txt.gz
Temp
5 6 6 6 6 5 5 5 4 5 5 5 4 3 3 2 2 2 2 1 1 -0 -2 -3 -3 -3 -3 -4 -5 -5 -6 -6 -7 -7 -8 -8 -9 -10 -11 -11 -12 -13 -14 -15
5 5 5 5 5 5 5 5 5 5 5 5 4 3 3 2 2 1 1 0 -0 -1 -3 -3 -3 -3 -4 -5 -5 -6 -7 -7 -8 -8 -9 -9 -10 -11 -11 -12 -13 -13 -14 -15
5 5 5 4 6 6 6 6 6 5 6 4 4 3 2 2 1 1 0 -1 -1 -2 -3 -3 -4 -4 -5 -5 -6 -7 -7 -8 -8 -9 -9 -10 -11 -11 -12 -13 -13 -14 -15 -15
5 4 1 6 6 6 6 6 6 6 5 4 3 2 2 2 1 0 -0 -1 -2 -2 -3 -3 -4 -5 -6 -6 -7 -7 -8 -8 -9 -9 -10 -11 -11 -12 -13 -13 -14 -14 -15 -15
4 3 4 5 5 6 5 5 5 5 4 3 2 2 2 1 1 -0 -1 -2 -3 -3 -3 -4 -5 -6 -6 -7 -7 -8 -9 -9 -9 -10 -10 -11 -12 -12 -13 -14 -14 -14 -15 -15
3 2 0 5 5 5 4 4 4 3 3 2 1 1 1 0 -0 -1 -2 -3 -3 -3 -4 -5 -6 -7 -7 -7 -8 -8 -9 -9 -10 -10 -11 -12 -13 -13 -13 -14 -15 -15 -15 -16
3 2 3 4 4 3 2 3 2 2 2 1 1 1 0 -0 -1 -2 -3 -3 -3 -3 -5 -6 -7 -7 -7 -8 -9 -9 -9 -10 -10 -11 -12 -13 -13 -13 -14 -15 -15 -16 -16 -16
3 2 2 3 2 2 1 1 1 1 0 -0 -0 -1 -1 -1 -2 -3 -3 -4 -4 -4 -5 -7 -8 -8 -8 -9 -9 -9 -9 -10 -11 -12 -13 -13 -13 -14 -14 -15 -15 -16 -16 -16
2 3 2 2 1 1 1 0 -0 -0 -1 -1 -1 -2 -2 -2 -2 -3 -3 -4 -4 -5 -7 -9 -9 -9 -9 -9 -9 -9 -10 -11 -12 -13 -13 -13 -13 -14 -15 -16 -16 -16 -16 -16
2 2 1 1 1 0 -0 -0 -0 -1 -1 -1 -2 -2 -2 -2 -3 -3 -4 -4 -5 -6 -8 -8 -9 -9 -9 -9 -9 -10 -10 -11 -12 -13 -13 -13 -14 -14 -15 -16 -16 -16 -16 -16
1 1 0 0 0 -0 -0 -1 -1 -1 -1 -1 -2 -2 -2 -3 -4 -4 -4 -4 -6 -7 -8 -9 -9 -9 -9 -9 -10 -10 -11 -12 -12 -13 -13 -13 -14 -15 -15 -16 -16 -16 -16 -16
0 -0 -1 -0 -0 -1 -1 -1 -1 -1 -1 -2 -2 -3 -3 -4 -4 -4 -4 -6 -7 -8 -9 -9 -9 -10 -9 -10 -10 -11 -12 -12 -13 -13 -13 -14 -14 -15 -15 -16 -16 -16 -16 -16
-0 -0 -0 -0 -1 -1 -1 -1 -1 -2 -2 -2 -3 -4 -4 -4 -5 -6 -7 -8 -8 -10 -10 -9 -9 -10 -10 -10 -11 -12 -12 -12 -13 -13 -14 -14 -15 -15 -15 -16 -16 -16 -16 -16
-0 -0 -1 -1 -1 -2 -2 -2 -2 -3 -3 -4 -4 -4 -5 -5 -6 -7 -8 -9 -11 -10 -9 -10 -10 -10 -10 -11 -12 -12 -12 -13 -13 -14 -14 -14 -15 -16 -16 -16 -16 -16 -16 -16
-1 -1 -1 -2 -2 -2 -3 -3 -3 -4 -5 -5 -5 -4 -7 -7 -7 -8 -10 -11 -10 -9 -10 -10 -10 -11 -12 -12 -12 -12 -13 -13 -13 -14 -14 -15 -15 -16 -16 -16 -16 -16 -16 -16
-1 -2 -2 -2 -2 -2 -3 -3 -5 -4 -5 -4 -5 -7 -7 -7 -9 -11 -11 -10 -9 -10 -10 -11 -11 -12 -12 -12 -13 -13 -13 -13 -14 -14 -14 -15 -15 -16 -16 -16 -16 -16 -16 -16
-2 -2 -3 -3 -4 -4 -5 -5 -6 -5 -6 -7 -7 -8 -9 -10 -12 -12 -10 -10 -10 -11 -11 -11 -12 -12 -12 -13 -13 -13 -13 -13 -14 -14 -14 -15 -15 -15 -16 -16 -16 -16 -16 -16
-3 -4 -4 -5 -6 -6 -6 -6 -7 -8 -8 -8 -9 -10 -10 -11 -11 -11 -11 -11 -11 -11 -12 -12 -12 -12 -13 -13 -13 -13 -13 -14 -14 -14 -14 -14 -15 -15 -15 -16 -16 -16 -16 -16
-5 -5 -7 -7 -7 -8 -8 -8 -8 -8 -9 -9 -10 -11 -11 -11 -11 -11 -11 -11 -12 -12 -12 -13 -13 -13 -13 -14 -14 -14 -14 -14 -14 -14 -14 -14 -14 -15 -15 -16 -16 -16 -16 -16
-7 -8 -8 -8 -8 -8 -8 -9 -10 -10 -10 -10 -10 -10 -11 -11 -11 -11 -11 -12 -13 -13 -13 -13 -13 -14 -14 -14 -14 -14 -14 -14 -14 -14 -14 -14 -15 -15 -15 -16 -16 -16 -16 -16
-8 -9 -9 -9 -10 -10 -11 -11 -11 -11 -11 -11 -11 -11 -11 -11 -12 -12 -12 -12 -13 -13 -13 -14 -14 -14 -14 -14 -15 -15 -15 -15 -15 -15 -15 -15 -15 -15 -15 -16 -16 -16 -16 -17
-9 -10 -10 -10 -11 -11 -11 -11 -11 -11 -11 -11 -11 -11 -12 -12 -12 -12 -13 -13 -13 -13 -14 -14 -15 -15 -15 -15 -15 -15 -15 -15 -15 -15 -15 -15 -15 -16 -16 -16 -16 -17 -17 -17
-10 -10 -10 -10 -11 -11 -11 -11 -11 -12 -12 -12 -13 -13 -13 -12 -12 -13 -12 -13 -13 -14 -14 -14 -15 -15 -16 -16 -16 -16 -16 -16 -16 -16 -16 -16 -16 -16 -16 -16 -16 -16 -16 -16
-11 -11 -11 -11 -12 -12 -12 -12 -12 -13 -13 -13 -13 -13 -13 -13 -13 -13 -14 -14 -14 -14 -14 -14 -15 -16 -16 -17 -17 -17 -16 -16 -16 -16 -16 -17 -17 -17 -17 -17 -16 -16 -16 -16
-12 -12 -12 -12 -12 -13 -13 -12 -13 -13 -13 -13 -13 -13 -13 -14 -14 -14 -14 -14 -15 -15 -15 -15 -15 -16 -17 -17 -17 -17 -17 -17 -17 -17 -17 -17 -17 -17 -17 -17 -17 -17 -17 -17
-12 -12 -13 -13 -13 -13 -13 -14 -14 -13 -13 -13 -13 -14 -14 -14 -14 -15 -15 -15 -16 -16 -16 -16 -16 -17 -16 -17 -17 -18 -18 -18 -17 -17 -17 -17 -17 -18 -18 -18 -18 -18 -17 -17
-13 -13 -14 -14 -14 -14 -14 -14 -14 -14 -14 -14 -14 -15 -15 -15 -15 -16 -16 -17 -17 -17 -17 -18 -18 -18 -17 -18 -18 -18 -18 -18 -18 -18 -18 -18 -18 -18 -18 -18 -18 -18 -18 -17

GFSNGP_700_temp_006.txt.gz
Temp
6 6 6 6 5 6 5 5 5 6 5 5 4 4 4 4 3 3 3 2 2 2 1 0 -1 -2 -3 -3 -4 -4 -5 -5 -6 -6 -6 -7 -8 -8 -9 -10 -11 -11 -12 -13
5 5 5 5 6 5 5 5 5 5 6 5 5 5 4 4 3 2 2 2 2 1 1 -1 -2 -3 -3 -3 -4 -5 -5 -6 -6 -7 -7 -8 -8 -9 -10 -11 -11 -12 -13 -14
4 5 4 4 6 6 6 6 6 5 5 5 5 4 4 3 2 2 2 1 1 0 -1 -2 -3 -3 -4 -4 -5 -6 -6 -6 -7 -7 -8 -8 -9 -10 -11 -11 -12 -13 -14 -14
4 4 2 5 6 6 5 6 6 6 5 5 4 4 3 2 2 1 1 1 0 -1 -2 -2 -3 -3 -4 -5 -6 -6 -6 -7 -7 -8 -8 -9 -9 -10 -11 -12 -13 -14 -14 -14
4 3 4 5 5 6 5 5 5 5 4 4 3 2 2 1 1 1 1 -0 -1 -2 -2 -2 -3 -3 -5 -6 -7 -6 -7 -7 -8 -8 -9 -9 -10 -11 -12 -13 -13 -14 -15 -15
3 2 3 5 5 5 5 4 3 3 3 3 2 2 2 1 1 0 -0 -1 -2 -2 -3 -3 -3 -3 -5 -7 -7 -8 -8 -8 -8 -9 -9 -9 -11 -12 -13 -13 -14 -14 -15 -15
3 2 3 4 4 3 2 2 2 2 2 1 1 0 0 -0 -1 -1 -1 -2 -2 -3 -3 -4 -4 -4 -6 -8 -9 -8 -8 -8 -9 -9 -9 -10 -11 -13 -13 -13 -14 -15 -15 -16
2 2 2 3 2 2 2 2 2 1 0 0 -0 -0 -1 -1 -1 -2 -2 -2 -3 -3 -3 -4 -4 -7 -9 -9 -9 -9 -8 -9 -9 -9 -10 -11 -12 -13 -13 -14 -14 -15 -15 -16
3 3 2 2 1 1 1 1 1 0 -0 -0 -1 -1 -1 -1 -2 -2 -2 -3 -3 -3 -4 -4 -5 -9 -9 -10 -9 -9 -9 -9 -9 -10 -11 -12 -12 -13 -13 -14 -15 -15 -16 -16
2 2 1 1 1 1 0 -0 -0 -0 -0 -1 -1 -1 -1 -1 -2 -2 -3 -3 -3 -4 -4 -4 -7 -8 -10 -10 -9 -9 -9 -9 -10 -11 -11 -12 -12 -13 -14 -14 -15 -15 -16 -16
1 1 1 0 0 -0 -1 -1 -1 -1 -1 -1 -1 -1 -2 -2 -2 -3 -3 -4 -4 -4 -5 -8 -8 -11 -11 -10 -9 -10 -10 -10 -11 -11 -11 -12 -13 -13 -14 -15 -15 -15 -16 -16
0 -0 -0 -0 -0 -1 -1 -1 -1 -1 -2 -2 -2 -2 -3 -3 -3 -4 -4 -4 -5 -8 -8 -9 -11 -12 -11 -10 -10 -10 -11 -11 -12 -12 -12 -13 -13 -13 -14 -15 -15 -15 -16 -16
0 0 -0 -0 -1 -1 -1 -1 -2 -2 -2 -2 -3 -3 -4 -4 -5 -4 -4 -8 -8 -8 -9 -12 -12 -11 -10 -10 -11 -11 -11 -12 -12 -12 -13 -13 -13 -14 -14 -14 -15 -15 -16 -16
-0 -0 -1 -1 -1 -2 -2 -3 -3 -3 -3 -3 -4 -5 -5 -5 -5 -6 -8 -8 -8 -10 -12 -12 -11 -10 -11 -11 -11 -12 -12 -12 -12 -13 -13 -13 -13 -14 -14 -15 -15 -15 -16 -16
-0 -1 -1 -2 -2 -3 -3 -3 -3 -4 -5 -5 -5 -5 -5 -7 -8 -8 -8 -9 -10 -12 -12 -11 -11 -11 -11 -11 -12 -12 -12 -12 -13 -13 -13 -13 -14 -14 -14 -15 -15 -16 -16 -16
-2 -2 -2 -2 -3 -4 -4 -5 -5 -5 -5 -6 -6 -7 -8 -8 -8 -9 -9 -10 -11 -11 -11 -11 -11 -12 -12 -12 -13 -13 -13 -13 -13 -13 -13 -14 -14 -14 -15 -15 -15 -15 -16 -16
-2 -3 -3 -3 -4 -4 -5 -6 -6 -7 -7 -8 -8 -8 -8 -9 -10 -10 -11 -11 -11 -11 -11 -11 -12 -12 -12 -13 -13 -13 -13 -13 -13 -14 -14 -14 -14 -14 -14 -15 -15 -15 -16 -16
-4 -4 -4 -5 -5 -6 -7 -7 -8 -9 -9 -8 -9 -9 -9 -10 -10 -10 -11 -11 -11 -11 -12 -12 -12 -12 -13 -13 -13 -13 -13 -14 -14 -14 -14 -14 -14 -14 -14 -15 -15 -15 -16 -16
-4 -5 -6 -6 -7 -8 -8 -8 -9 -9 -9 -9 -10 -10 -10 -10 -11 -11 -11 -12 -12 -12 -12 -13 -13 -13 -13 -14 -14 -14 -14 -14 -14 -14 -14 -14 -14 -15 -15 -15 -15 -15 -16 -16
-7 -8 -8 -8 -8 -9 -9 -10 -10 -10 -10 -10 -10 -11 -11 -11 -11 -12 -12 -12 -13 -13 -13 -13 -13 -13 -14 -14 -14 -15 -15 -15 -15 -15 -15 -15 -15 -15 -15 -15 -15 -15 -16 -16
-8 -8 -9 -9 -9 -10 -10 -10 -11 -11 -11 -11 -12 -12 -12 -12 -12 -12 -12 -12 -13 -13 -13 -13 -13 -14 -14 -14 -14 -15 -15 -16 -16 -16 -16 -16 -16 -15 -15 -15 -16 -16 -16 -16
-9 -10 -10 -10 -10 -10 -11 -11 -11 -11 -11 -12 -12 -12 -12 -12 -12 -12 -13 -13 -13 -13 -13 -14 -14 -14 -14 -15 -15 -15 -15 -16 -16 -16 -16 -16 -16 -16 -16 -16 -16 -16 -16 -17
-10 -10 -10 -11 -11 -11 -11 -12 -12 -12 -12 -13 -13 -13 -12 -12 -13 -13 -12 -13 -14 -14 -14 -14 -15 -15 -15 -15 -15 -16 -16 -16 -16 -17 -17 -17 -17 -17 -17 -17 -17 -17 -17 -17
-11 -11 -11 -11 -12 -12 -12 -13 -13 -13 -13 -13 -13 -13 -13 -13 -13 -14 -14 -14 -14 -15 -15 -15 -16 -16 -16 -16 -16 -17 -17 -17 -17 -17 -17 -17 -18 -18 -18 -17 -17 -17 -18 -17
-12 -12 -12 -12 -12 -13 -13 -13 -13 -13 -13 -13 -13 -13 -13 -14 -14 -14 -15 -15 -15 -15 -16 -16 -17 -17 -17 -17 -17 -17 -17 -17 -18 -18 -18 -18 -18 -18 -18 -18 -18 -18 -18 -18
-12 -12 -13 -13 -13 -13 -13 -13 -13 -13 -13 -13 -14 -14 -14 -14 -15 -15 -15 -16 -16 -17 -17 -17 -18 -18 -18 -18 -18 -18 -18 -18 -18 -18 -18 -18 -18 -18 -18 -18 -18 -18 -18 -18
-13 -13 -13 -14 -14 -14 -14 -14 -14 -14 -14 -14 -14 -15 -15 -15 -16 -16 -17 -17 -17 -18 -18 -19 -19 -19 -19 -18 -18 -18 -18 -19 -19 -19 -18 -18 -19 -19 -19 -19 -19 -19 -19 -19

GFSNGP_700_temp_009.txt.gz
Temp
6 5 6 7 7 7 6 7 7 7 8 8 7 6 5 4 4 4 2 3 2 3 3 2 2 1 0 -1 -2 -3 -3 -5 -5 -5 -5 -5 -6 -7 -7 -8 -8 -9 -11 -11
5 5 5 5 6 6 7 6 7 7 7 7 6 5 5 4 4 4 3 3 3 3 2 2 2 1 -0 -1 -2 -3 -4 -5 -5 -6 -6 -6 -7 -7 -8 -8 -9 -11 -13 -13
5 4 4 4 6 6 6 6 6 6 6 6 5 4 4 3 3 3 3 2 2 2 1 1 1 -0 -1 -2 -3 -3 -5 -6 -7 -8 -7 -7 -8 -8 -9 -10 -10 -12 -14 -14
4 4 2 6 6 6 6 6 6 6 5 5 4 4 4 3 2 3 2 2 1 1 1 1 -0 -1 -2 -3 -3 -4 -5 -6 -8 -8 -7 -8 -8 -9 -10 -11 -13 -14 -14 -15
3 4 5 5 5 5 5 6 5 4 4 4 3 3 3 3 2 2 1 1 0 -0 -0 -0 -1 -2 -3 -3 -4 -5 -7 -9 -9 -8 -8 -9 -9 -9 -10 -11 -14 -15 -15 -15
3 3 2 4 5 5 5 5 2 3 2 2 3 2 2 1 1 1 0 -0 -1 -1 -2 -2 -2 -2 -3 -3 -4 -5 -8 -10 -10 -10 -9 -9 -9 -10 -11 -12 -13 -15 -15 -14
2 2 3 3 4 4 3 3 2 3 2 1 1 1 0 0 0 -1 -1 -1 -2 -2 -2 -2 -3 -3 -3 -5 -7 -8 -9 -10 -11 -9 -9 -9 -10 -11 -11 -12 -13 -13 -14 -14
1 1 2 3 3 2 2 2 1 2 1 -0 1 0 -0 -1 -0 -1 -1 -2 -2 -2 -3 -3 -3 -3 -4 -4 -7 -9 -10 -11 -11 -10 -9 -10 -10 -11 -12 -13 -13 -13 -14 -15
2 3 3 2 2 1 2 2 1 1 1 -0 -0 -1 -1 -2 -1 -1 -1 -2 -2 -2 -2 -3 -3 -3 -5 -6 -8 -10 -11 -11 -10 -9 -10 -11 -11 -11 -12 -13 -13 -14 -15 -15
2 2 1 1 1 0 0 -0 -0 -0 -0 -0 -1 -1 -1 -2 -1 -2 -2 -2 -2 -3 -3 -4 -4 -5 -7 -9 -10 -11 -11 -11 -10 -10 -10 -11 -12 -12 -13 -13 -13 -14 -15 -15
1 2 1 0 -0 -1 -0 -0 -1 -1 -1 -1 -1 -1 -2 -2 -2 -3 -3 -3 -3 -4 -4 -4 -5 -7 -9 -9 -12 -12 -11 -10 -10 -11 -11 -11 -12 -13 -13 -13 -14 -14 -15 -15
0 0 0 -0 -1 -0 -1 -1 -1 -1 -1 -2 -2 -2 -3 -3 -3 -3 -4 -5 -5 -5 -6 -8 -8 -8 -9 -11 -12 -11 -10 -11 -11 -11 -12 -12 -12 -13 -13 -13 -14 -14 -15 -15
0 0 0 -0 -1 -0 -1 -1 -1 -2 -2 -2 -2 -3 -3 -4 -4 -5 -6 -5 -6 -8 -8 -8 -9 -9 -11 -11 -10 -10 -11 -11 -11 -12 -12 -12 -13 -13 -13 -13 -13 -14 -15 -15
1 0 -1 -0 -1 -1 -2 -2 -3 -3 -3 -3 -3 -4 -5 -5 -5 -6 -6 -8 -8 -8 -8 -9 -10 -10 -10 -10 -11 -11 -11 -12 -12 -12 -13 -13 -13 -13 -14 -14 -14 -14 -15 -15
0 -0 -1 -1 -2 -2 -3 -3 -4 -4 -4 -4 -5 -5 -6 -6 -7 -8 -8 -8 -8 -9 -9 -10 -11 -11 -11 -11 -11 -12 -12 -12 -13 -13 -13 -13 -14 -14 -14 -14 -14 -14 -15 -15
-1 -1 -2 -2 -2 -3 -4 -4 -4 -4 -5 -6 -6 -7 -8 -8 -8 -8 -9 -9 -10 -10 -11 -11 -11 -11 -11 -11 -12 -12 -13 -12 -13 -13 -14 -14 -14 -14 -14 -14 -14 -14 -14 -15
-2 -2 -3 -3 -3 -4 -4 -5 -5 -6 -6 -7 -8 -8 -8 -8 -8 -9 -9 -10 -10 -11 -11 -11 -11 -12 -12 -12 -13 -13 -13 -14 -14 -14 -14 -14 -14 -14 -14 -14 -15 -15 -15 -15
-3 -3 -4 -4 -5 -5 -5 -6 -6 -7 -8 -8 -9 -9 -9 -9 -10 -10 -11 -11 -11 -11 -12 -12 -12 -12 -13 -13 -14 -14 -14 -14 -14 -14 -15 -15 -15 -15 -15 -15 -15 -15 -15 -15
-4 -5 -5 -6 -6 -6 -7 -8 -8 -9 -9 -9 -10 -10 -10 -10 -10 -11 -11 -12 -12 -12 -12 -12 -13 -13 -13 -13 -14 -14 -14 -14 -14 -15 -15 -15 -16 -16 -16 -16 -15 -15 -15 -15
-6 -6 -7 -7 -7 -8 -8 -9 -9 -9 -10 -10 -10 -10 -11 -11 -11 -12 -12 -12 -13 -12 -12 -13 -13 -13 -13 -13 -14 -14 -14 -14 -15 -15 -16 -16 -16 -16 -16 -16 -16 -16 -16 -16
-7 -8 -8 -8 -8 -9 -9 -9 -10 -10 -10 -11 -11 -11 -12 -12 -12 -12 -12 -12 -13 -13 -13 -13 -13 -13 -14 -14 -14 -15 -15 -15 -16 -16 -16 -16 -16 -16 -16 -16 -16 -16 -17 -17
-8 -8 -9 -9 -9 -10 -10 -10 -11 -11 -11 -12 -12 -12 -12 -12 -12 -12 -13 -13 -13 -13 -13 -13 -14 -14 -14 -15 -15 -16 -16 -16 -16 -16 -17 -17 -17 -17 -16 -17 -17 -17 -17 -17
-9 -10 -10 -10 -11 -11 -11 -11 -12 -12 -12 -13 -13 -13 -13 -13 -13 -13 -13 -13 -13 -13 -14 -14 -14 -15 -15 -16 -16 -17 -17 -17 -17 -17 -17 -17 -17 -17 -17 -17 -17 -17 -17 -18
-10 -11 -11 -11 -11 -12 -12 -12 -13 -13 -13 -13 -13 -13 -13 -13 -13 -13 -13 -14 -14 -14 -15 -15 -15 -16 -16 -17 -17 -18 -18 -18 -18 -18 -17 -17 -17 -18 -17 -18 -18 -18 -18 -18
-11 -12 -12 -12 -12 -12 -13 -13 -14 -14 -14 -14 -13 -13 -14 -14 -14 -14 -14 -15 -15 -16 -16 -16 -16 -17 -17 -18 -18 -19 -18 -18 -18 -18 -18 -18 -18 -18 -18 -18 -18 -18 -18 -18
-12 -12 -12 -13 -13 -13 -14 -14 -14 -14 -14 -14 -14 -14 -14 -14 -15 -15 -16 -16 -17 -17 -17 -17 -18 -18 -19 -20 -20 -20 -19 -20 -19 -19 -19 -19 -19 -19 -19 -19 -18 -18 -18 -19
-12 -12 -13 -13 -14 -14 -14 -14 -14 -14 -14 -14 -14 -15 -15 -16 -16 -17 -17 -18 -18 -18 -18 -19 -19 -20 -21 -21 -21 -21 -21 -21 -20 -20 -20 -20 -20 -20 -20 -19 -19 -19 -19 -19

GFSNGP_700_temp_012.txt.gz
Temp
7 7 7 7 8 8 8 7 7 7 8 8 8 7 7 6 5 5 5 4 3 3 2 1 1 1 1 0 0 -1 -2 -3 -3 -4 -4 -6 -8 -7 -8 -9 -8 -8 -8 -10
5 6 6 6 6 7 7 8 7 7 8 8 7 7 6 6 5 4 4 4 4 3 2 1 1 0 1 -0 -1 -1 -2 -3 -4 -4 -5 -6 -8 -8 -9 -8 -8 -9 -10 -12
4 4 5 5 6 6 6 7 7 7 7 7 6 5 4 4 4 3 4 3 3 2 1 1 1 0 -0 -1 -2 -2 -3 -3 -4 -5 -5 -10 -9 -10 -10 -9 -9 -10 -11 -13
4 4 3 6 6 6 6 6 7 7 7 6 5 5 4 4 3 3 2 2 2 2 1 1 0 -0 -1 -2 -2 -3 -4 -5 -5 -6 -8 -8 -10 -11 -10 -10 -10 -11 -12 -14
3 3 5 5 6 5 5 6 5 5 5 4 4 4 4 3 2 2 2 1 1 0 -0 -1 -1 -1 -2 -2 -3 -5 -5 -6 -7 -9 -9 -10 -11 -11 -11 -10 -10 -11 -12 -14
3 3 2 4 5 5 5 5 3 4 3 3 3 3 2 2 1 1 0 -0 -1 -1 -2 -2 -2 -3 -3 -4 -5 -5 -8 -9 -9 -9 -10 -12 -12 -11 -10 -10 -11 -12 -13 -13
2 2 3 4 4 4 4 3 3 3 3 2 2 1 1 1 0 0 0 -0 -1 -2 -2 -2 -3 -3 -4 -4 -5 -4 -7 -6 -9 -9 -10 -12 -12 -10 -10 -10 -11 -12 -12 -13
2 1 2 3 3 3 2 3 2 2 1 1 1 0 1 -0 -1 -1 0 -1 -1 -2 -2 -2 -3 -3 -3 -3 -4 -4 -5 -9 -9 -9 -11 -12 -11 -11 -11 -11 -12 -12 -12 -13
2 3 3 3 2 2 1 1 2 1 0 -0 -1 -1 -1 -1 -1 -2 -1 -2 -1 -2 -2 -3 -3 -4 -4 -4 -4 -7 -9 -9 -9 -10 -11 -11 -11 -11 -11 -12 -12 -12 -13 -13
2 3 2 2 1 1 0 -0 -1 -0 -0 -1 -1 -0 -1 -2 -2 -2 -2 -2 -2 -3 -3 -4 -5 -5 -5 -6 -8 -9 -9 -10 -11 -12 -11 -11 -11 -11 -12 -12 -12 -13 -13 -14
1 2 2 1 1 0 -0 0 -0 -0 -1 -1 -1 -2 -2 -2 -2 -2 -3 -4 -4 -5 -5 -6 -6 -6 -8 -8 -8 -9 -10 -11 -11 -11 -11 -11 -11 -11 -12 -13 -13 -13 -14 -14
2 1 1 1 -0 0 -0 -0 -1 -1 -1 -1 -2 -2 -2 -3 -3 -3 -4 -5 -6 -6 -6 -7 -8 -9 -9 -9 -10 -11 -11 -11 -11 -11 -11 -11 -11 -12 -12 -13 -13 -14 -14 -14
1 1 1 0 0 0 -0 -1 -1 -1 -2 -3 -3 -3 -3 -3 -4 -5 -6 -5 -6 -7 -8 -8 -9 -8 -9 -10 -10 -11 -11 -11 -11 -11 -11 -12 -12 -12 -13 -13 -13 -13 -14 -15
1 1 -0 -0 -0 -0 -1 -1 -2 -3 -3 -4 -4 -4 -4 -5 -5 -5 -6 -7 -8 -8 -9 -8 -9 -10 -11 -11 -11 -11 -11 -11 -12 -12 -12 -12 -13 -13 -13 -13 -14 -14 -14 -14
1 1 -0 -1 -1 -1 -2 -2 -2 -3 -4 -4 -4 -4 -4 -5 -6 -7 -8 -8 -9 -9 -9 -10 -10 -11 -11 -11 -11 -11 -12 -12 -12 -12 -13 -13 -14 -14 -14 -14 -14 -14 -14 -14
0 -0 -1 -1 -1 -2 -3 -3 -4 -4 -4 -4 -5 -6 -6 -7 -8 -8 -9 -9 -9 -10 -10 -10 -11 -11 -11 -11 -12 -12 -12 -13 -13 -13 -13 -13 -14 -14 -14 -15 -15 -15 -15 -15
-1 -1 -1 -2 -3 -3 -4 -4 -4 -5 -5 -6 -6 -7 -8 -9 -9 -9 -9 -10 -10 -10 -11 -11 -11 -11 -12 -12 -12 -13 -13 -13 -13 -14 -14 -14 -14 -15 -15 -16 -16 -16 -16 -16
-2 -2 -3 -3 -4 -4 -5 -5 -5 -6 -7 -8 -8 -9 -9 -9 -9 -10 -10 -11 -11 -12 -12 -11 -12 -12 -12 -13 -13 -13 -13 -13 -14 -14 -14 -15 -15 -15 -16 -16 -16 -16 -16 -16
-3 -3 -4 -5 -5 -6 -6 -6 -7 -8 -8 -9 -9 -9 -10 -10 -11 -11 -11 -12 -12 -12 -12 -12 -12 -13 -13 -13 -13 -13 -13 -14 -14 -14 -15 -15 -16 -16 -16 -16 -16 -16 -16 -16
-5 -5 -6 -6 -7 -7 -8 -8 -9 -9 -9 -10 -10 -10 -11 -11 -12 -12 -12 -12 -12 -12 -12 -12 -13 -13 -13 -13 -13 -14 -14 -15 -15 -15 -16 -16 -16 -16 -16 -16 -16 -16 -17 -17
-7 -7 -7 -8 -8 -9 -9 -9 -9 -10 -10 -10 -11 -11 -11 -12 -12 -12 -12 -12 -12 -13 -13 -13 -13 -13 -13 -13 -14 -14 -15 -15 -16 -16 -17 -17 -17 -17 -17 -17 -17 -17 -17 -17
-8 -8 -8 -9 -9 -9 -10 -10 -10 -10 -11 -11 -11 -12 -12 -12 -13 -13 -13 -13 -13 -13 -13 -13 -13 -14 -14 -15 -15 -16 -16 -16 -17 -17 -18 -18 -18 -17 -17 -17 -17 -17 -17 -17
-9 -9 -9 -10 -10 -10 -10 -11 -11 -11 -12 -12 -12 -13 -13 -13 -13 -13 -13 -13 -13 -14 -14 -14 -15 -16 -16 -16 -16 -17 -17 -17 -18 -18 -19 -18 -18 -17 -17 -17 -17 -17 -18 -18
-10 -10 -10 -11 -11 -11 -11 -12 -12 -12 -13 -13 -13 -13 -14 -14 -14 -14 -14 -14 -15 -15 -16 -16 -17 -17 -17 -17 -18 -18 -19 -19 -19 -19 -19 -19 -19 -19 -19 -18 -18 -18 -18 -18
-11 -11 -11 -12 -12 -12 -12 -13 -13 -13 -14 -14 -14 -14 -14 -14 -14 -15 -15 -15 -16 -17 -17 -17 -17 -18 -18 -18 -19 -20 -20 -21 -21 -21 -20 -20 -20 -20 -19 -19 -19 -19 -19 -19
-11 -12 -12 -12 -12 -13 -13 -14 -14 -14 -14 -14 -15 -15 -14 -15 -15 -16 -16 -17 -17 -18 -18 -18 -18 -19 -19 -20 -21 -21 -22 -22 -22 -22 -22 -21 -21 -21 -20 -20 -20 -20 -19 -19
-12 -12 -13 -13 -13 -14 -14 -14 -15 -15 -15 -15 -15 -15 -15 -16 -16 -17 -17 -18 -18 -19 -19 -19 -20 -20 -21 -21 -22 -22 -22 -23 -23 -23 -23 -22 -22 -22 -21 -21 -21 -20 -20 -20